Powrót do katalogu

STARLINK-3843

AktywnyŁącznośćVLEO
NORAD 52341·PAYLOAD·🇺🇸 United States

Wystrzelony Apr 29, 2022 z Cape Canaveral Space Force Station

Loading…

Następne Przeloty (najbliższe 24 godziny)

TLE

ŚwieżeSource: CelesTrak SupGP

Epoka: Sep 14, 2026, 20:50 UTC

1 52341C 22045L   26257.86854167  .00747920  00000+0  24140-1 0  2572
2 52341  53.1595  77.8198 0001206  79.6463 240.5088 15.31210384    15

Śledź STARLINK-3843 w czasie rzeczywistym z AllMySat

Download on the App Store